Regional Weather Roundup
Issued by NWS Cleveland, OH

Home | Current Version | Previous Version | Graphics & Text | Print | Product List | Glossary On
Versions: 1 2 3 4 5 6 7 8 9 10 11 12 13 14 15 16 17 18 19 20 21 22 23 24 25 26 27 28 29 30 31 32 33 34 35 36 37 38 39 40 41 42 43 44 45 46 47 48 49 50
000
ASUS41 KCLE 100100
RWRCLE
OHIO REGIONAL WEATHER ROUNDUP
NATIONAL WEATHER SERVICE WILMINGTON, OH
900 PM EDT WED JUL 09 2014

NOTE: "FAIR" INDICATES FEW OR NO CLOUDS BELOW 12,000 FEET WITH NO
SIGNIFICANT WEATHER AND/OR OBSTRUCTIONS TO VISIBILITY.

OHZ001>008-015>018-024>027-034-035-043-044-100200-
   NORTHWEST OHIO

CITY           SKY/WX    TMP DP  RH WIND       PRES   REMARKS
DEFIANCE       CLEAR     71  55  56 NW7       29.98R
FINDLAY        MOCLDY    74  57  55 NW6       29.96R
TOLEDO EXPRESS CLEAR     72  55  55 NW7       29.96R
TOLEDO METCALF CLEAR     73  55  53 N9        29.97R
LIMA           CLOUDY    74  58  57 N6        29.97R
$$

OHZ009>014-019>023-028>033-038-089-100200-
   NORTHEAST OHIO

CITY           SKY/WX    TMP DP  RH WIND       PRES   REMARKS
CLE-HOPKINS    PTCLDY    69  61  75 N7        29.98R
CLE-LAKEFRONT  CLEAR     69  60  73 NE6       29.95R
CUY CO. ARPT   NOT AVBL
LORAIN-ELYRIA  CLEAR     70  62  76 S5        29.97R
ASHTABULA      PTCLDY    66  57  72 NE3       29.99R
AKRON-CANTON   MOCLDY    68  59  73 NE3       29.98R
WOOSTER        NOT AVBL
MANSFIELD      PTCLDY    67  63  87 CALM      29.99R
YOUNGSTOWN     MOCLDY    66  61  84 N5        29.99R
$$

OHZ042-051>053-060>062-070>072-077>081-100200-
  SOUTHWEST OHIO

CITY           SKY/WX    TMP DP  RH WIND       PRES   REMARKS
CINC-COVINGTON PTCLDY    75  59  57 W7        29.98R
CINC-LUNKEN    PTCLDY    77  60  55 NW7       29.97R
HAMILTON       CLEAR     76  61  59 W5        29.98R
DAYTON         NOT AVBL
WRIGHT-PAT AFB CLEAR     76  60  57 NW7       29.97R
DAYTON GENERAL MOCLDY    76  61  59 W5        29.98R
WILMINGTON     CLEAR     75  57  53 NW9       29.98R
$$

OHZ036-037-039>041-045>050-054>059-063>069-073>076-082>088-100200-
  CENTRAL AND SOUTHEAST OHIO

CITY           SKY/WX    TMP DP  RH WIND       PRES   REMARKS
COLUMBUS       PTCLDY    77  58  51 W6        29.95R
OSU AIRPORT    MOCLDY    74  60  61 W7        29.96R
BOLTON FIELD   NOT AVBL
RICKENBACK AFB NOT AVBL
NEWARK         PTCLDY    74  59  59 W5        29.96R
MARION         PTCLDY    71  65  81 CALM      29.97R
LANCASTER      PTCLDY    74  59  59 W5        29.96R
ZANESVILLE     PTCLDY    74  57  55 CALM      29.96R
NEW PHILLY     CLOUDY    71  59  65 CALM      29.97R
$$



USA.gov is the U.S. government's official web portal to all federal, state and local government web resources and services.